Starlink 30374

operational
NORAD ID: 57809 Int'l Des: 2023-138 Owner: SPXS Country: US Constellation: starlink
LEOCIRCULAR

关于 Starlink 30374

正在加载描述...

实时位置

正在加载3D地球...

即将过境

高度历史

Altitude vs Time

uPlot chart will show altitude changes over time

两行轨道根数

1 57809U 23138B 25306.46211851 -.00007111 00000-0 -51129-3 0 9993
2 57809 43.0016 207.7388 0000612 297.9548 62.1233 15.02578681119576
Epoch: Nov 2, 2025 • Age: 15 hours

当前状态

高度 559.0 km
速度 7.58 km/s
星下点 0.22°N, 52.21°W
发射日期 Sep 9, 2023
运行时间 2.1 years
类型 internet

技术详情

分类 Payload
质量 730.00 kg
干质量 700.00 kg
总质量 730.00 kg
长度 0.30 m
直径 4.10 m
跨度 29.00 m
形状 Box + pan
制造商 SPXS
平台类型 Starlink V2M
阶段状态 In Orbit
所有者/国家 SPXS/US

大型星座

Loading constellations...